GFSCGP_925_spd_057.txt.gz
Wind_Speed
2 4 4 3 4 2 3 3 3 3 2 11 14 18 18 14 13 11 9 7 6 8 9 13 16 15 15 16 15 10 8 21 24 20 14 18 31 34 29 34 38 39 30 44
2 6 5 2 3 4 5 4 3 5 5 7 15 19 20 18 13 12 9 6 9 7 9 10 15 15 17 17 19 15 10 8 15 18 21 22 24 28 36 27 35 34 34 30
3 2 6 4 4 5 5 5 3 5 5 9 9 11 1 9 2 5 8 9 9 9 7 8 10 16 18 18 19 21 16 12 11 19 21 20 15 17 20 28 35 40 37 37
4 2 6 6 5 6 5 7 3 5 8 7 4 6 8 2 7 4 5 5 8 12 8 7 9 13 16 19 22 22 23 20 12 10 20 24 24 23 28 29 34 27 38 40
2 3 3 4 2 7 0 4 3 6 9 5 6 5 1 6 6 3 10 10 9 5 6 7 8 11 16 16 19 23 25 24 19 13 14 21 26 27 28 23 23 25 33 37
9 1 4 6 3 2 3 1 3 1 2 5 0 4 3 6 5 4 10 6 7 5 6 8 12 12 14 17 16 19 22 27 24 20 14 18 25 27 26 28 28 31 31 29
3 3 2 2 5 3 2 3 4 3 3 3 1 9 11 9 9 13 14 11 4 6 8 11 15 16 19 18 19 18 17 24 26 24 22 15 21 29 30 30 27 24 24 24
7 7 6 3 3 3 4 3 3 4 4 7 5 10 3 1 5 11 11 12 10 11 12 14 16 17 17 18 19 20 21 20 20 22 25 20 18 19 25 29 29 28 30 27
3 3 1 3 3 5 5 5 2 3 5 7 7 11 14 11 8 7 10 7 8 12 15 15 16 17 16 20 23 20 22 24 22 21 22 22 21 20 23 27 30 29 29 24
2 5 3 1 3 3 6 9 3 3 4 6 7 16 13 13 11 12 7 7 8 13 16 17 14 14 16 19 22 22 21 25 26 25 23 22 21 21 24 25 25 25 26 22
3 4 4 2 8 12 5 4 2 2 4 5 8 7 2 12 12 11 11 10 14 17 15 15 15 15 17 16 18 21 23 24 23 24 24 24 24 22 20 22 23 22 20 21
1 2 8 12 7 2 3 9 10 7 6 5 5 15 11 13 5 11 21 21 18 16 16 16 17 20 18 18 20 21 22 23 22 24 24 26 25 21 20 23 23 22 23 20
4 3 5 6 4 3 4 8 9 8 2 15 12 13 5 12 19 23 21 20 17 17 18 18 18 17 18 20 20 23 24 24 24 23 25 26 27 23 24 24 24 23 21 21
2 5 10 10 10 2 8 11 12 11 6 19 18 32 24 26 22 20 19 17 17 17 19 18 17 18 19 21 23 26 26 25 26 25 25 26 28 26 26 25 23 24 23 23
6 9 14 18 19 17 20 21 20 19 23 16 24 24 25 22 20 19 16 16 19 21 21 19 18 17 16 23 25 28 25 27 27 28 27 28 29 26 22 22 22 21 23 23
4 3 3 12 15 17 19 20 19 19 22 23 28 28 25 20 13 17 15 17 21 22 24 24 20 17 20 23 25 29 27 29 27 29 29 29 25 24 24 21 22 22 22 24
1 2 4 5 2 10 14 12 10 9 10 13 17 20 18 19 19 16 19 23 27 26 20 21 17 19 19 26 27 27 28 30 29 30 28 29 25 25 24 24 25 26 27 27
8 4 3 6 8 7 4 6 11 12 15 16 18 21 18 17 18 24 21 24 25 20 19 20 20 19 21 25 30 28 29 27 28 31 27 26 24 25 26 27 28 26 26 27
14 9 4 4 5 12 12 2 2 4 14 18 17 14 16 19 26 25 18 18 17 22 23 22 28 25 23 25 28 27 32 27 30 29 24 23 23 25 29 29 28 27 28 24
7 7 2 2 4 5 3 1 2 6 13 4 10 17 20 22 17 18 23 22 17 22 24 20 28 27 25 28 23 24 28 30 28 24 23 22 24 27 27 29 29 28 27 26
3 3 9 9 6 8 4 1 4 5 6 18 21 18 22 20 19 27 23 22 22 23 19 26 25 22 23 27 24 24 28 25 27 18 21 22 22 23 25 30 31 32 30 31
2 3 3 3 5 6 2 7 5 11 20 20 22 23 23 25 28 23 21 24 22 23 21 27 19 21 25 25 23 22 24 26 22 15 16 22 27 27 29 33 30 31 34 29
2 3 2 4 5 7 11 16 15 20 20 21 21 23 23 26 26 26 25 22 23 21 19 27 20 21 24 24 24 21 28 23 17 15 15 21 26 29 32 35 31 29 29 25
3 2 3 4 4 12 17 17 18 19 19 20 22 24 19 24 23 23 20 20 19 19 19 25 20 18 17 25 23 25 26 21 20 21 21 23 29 29 30 30 30 28 25 22
5 4 5 8 16 16 10 17 18 18 20 21 22 21 20 19 19 19 19 19 18 19 20 25 18 17 18 22 19 23 21 21 26 24 25 24 28 27 28 25 24 25 23 26
1 3 2 4 15 15 17 20 21 20 22 24 19 17 18 18 19 19 17 17 18 18 21 22 23 21 25 32 24 20 26 32 29 27 27 25 25 25 25 25 25 19 20 21

GFSCGP_925_spd_060.txt.gz
Wind_Speed
8 10 12 10 6 6 6 8 9 5 4 10 12 13 15 13 15 15 14 13 12 12 11 13 11 10 10 9 13 14 8 3 7 24 22 19 23 21 25 30 32 33 34 28
9 13 8 3 6 8 9 10 11 7 6 9 13 17 16 17 15 17 15 14 12 11 10 10 9 9 11 11 10 11 10 6 7 15 14 15 10 19 29 22 30 33 42 37
10 5 6 8 9 10 11 11 8 9 10 15 13 19 9 6 7 6 8 7 8 9 8 7 8 12 13 11 11 10 11 11 9 9 12 13 12 15 18 27 33 35 37 44
7 6 7 9 9 9 12 5 6 8 10 8 1 5 9 9 6 6 4 3 4 7 6 3 3 6 9 11 11 9 9 11 10 9 10 15 19 21 23 22 21 27 32 31
1 8 10 10 7 5 8 2 8 11 13 13 16 7 4 6 7 11 3 2 2 2 2 2 4 5 8 12 12 11 10 9 9 10 10 14 20 23 22 21 32 26 30 25
15 8 8 11 6 9 1 10 12 13 10 11 10 6 6 8 7 5 4 5 1 1 1 1 3 8 10 11 11 14 13 10 9 9 10 13 18 21 23 24 25 24 22 23
17 15 12 9 11 8 10 10 8 8 8 6 5 5 8 5 2 6 8 7 6 5 3 5 10 9 12 12 12 12 14 18 14 13 13 14 17 20 24 27 28 27 25 26
15 11 14 10 13 11 8 8 8 6 7 7 4 6 7 6 4 5 5 7 9 8 5 8 9 10 14 12 12 15 17 17 18 17 16 16 17 19 21 23 28 30 28 28
8 15 7 6 5 6 4 10 5 8 15 12 10 7 10 12 6 4 7 6 8 5 8 10 11 14 13 12 14 15 17 19 20 22 21 19 18 19 22 23 24 29 30 26
4 12 5 6 4 9 14 5 5 8 7 12 8 10 8 13 1 4 4 4 6 10 13 14 14 15 15 15 16 17 17 18 19 22 24 24 22 20 21 23 24 26 26 26
7 9 10 8 12 16 9 13 9 8 10 11 12 5 7 2 6 3 4 7 15 18 16 14 16 19 20 20 18 19 21 21 20 21 23 24 25 24 22 23 23 26 27 25
2 5 11 14 13 5 12 13 12 10 10 8 10 15 7 5 2 5 13 13 13 16 16 15 15 20 22 22 21 21 20 23 22 21 22 23 24 24 24 24 25 23 25 25
2 6 8 10 9 6 11 16 16 15 13 15 11 11 4 6 13 18 18 15 14 16 15 15 16 17 19 22 24 22 21 24 23 22 23 24 24 25 26 26 26 24 25 25
4 12 13 12 12 2 6 10 10 12 10 15 20 27 20 20 19 17 17 16 17 16 16 14 15 18 22 23 25 22 25 24 24 23 23 24 25 25 26 27 26 25 25 25
10 17 17 18 18 17 18 19 19 18 21 22 22 27 23 22 22 21 20 18 20 18 19 20 21 20 21 27 25 23 24 24 24 25 25 25 26 25 26 27 27 25 26 27
7 6 8 12 15 17 19 21 21 22 22 23 24 26 24 21 16 18 15 18 20 23 25 25 27 26 21 24 23 25 26 26 24 26 27 27 26 26 27 28 26 26 27 26
4 4 4 9 6 9 13 18 14 18 20 16 19 20 20 21 20 16 18 21 25 26 26 21 21 23 18 23 25 27 28 27 26 27 28 26 26 26 27 27 26 26 27 27
9 7 2 7 10 10 1 2 10 15 16 17 19 20 20 18 19 20 23 26 23 24 25 22 20 22 30 31 29 29 30 28 29 28 29 25 26 25 28 28 27 26 26 28
14 10 4 4 7 14 17 5 7 11 17 19 19 14 22 25 27 24 24 23 21 21 21 22 29 31 30 31 27 28 30 28 29 28 28 24 26 23 25 27 26 26 27 27
6 11 4 4 5 6 5 4 4 11 16 3 16 21 26 20 17 17 24 26 21 24 20 20 28 30 29 30 30 26 28 26 28 30 28 25 23 22 23 22 25 28 28 29
3 3 8 9 7 10 7 6 8 9 8 22 23 22 24 20 22 29 29 25 22 22 24 27 28 26 26 29 26 24 26 27 30 29 27 26 21 20 26 26 29 28 29 29
3 3 4 5 4 6 5 15 5 13 23 24 25 25 26 28 30 28 23 25 24 23 24 29 20 21 27 29 25 26 23 31 25 27 29 23 18 24 28 29 27 29 32 33
3 2 4 5 5 17 16 15 17 17 21 24 25 25 28 28 26 25 23 23 22 22 20 27 22 23 27 28 26 24 29 25 30 29 21 19 19 26 28 28 30 29 30 30
5 6 2 6 5 11 18 21 18 21 24 26 26 27 23 27 25 23 22 20 19 20 20 26 21 19 20 27 29 30 27 25 24 19 19 22 25 26 26 27 29 30 28 27
3 5 4 10 16 17 15 21 22 24 25 26 26 26 24 22 21 21 20 20 20 21 21 24 16 17 21 28 27 27 23 20 19 19 25 25 27 27 26 25 25 28 27 27
3 4 3 5 18 16 17 20 25 25 28 29 23 21 20 19 21 21 19 20 20 20 19 20 22 22 29 27 27 22 17 17 10 12 23 26 25 26 27 27 26 24 22 22

GFSCGP_925_spd_063.txt.gz
Wind_Speed
16 12 14 16 16 15 14 16 13 7 10 5 14 17 18 17 17 16 16 16 15 15 14 14 8 4 3 4 2 7 4 1 8 20 16 19 21 18 23 27 28 28 30 31
10 14 16 17 7 10 14 16 16 15 10 9 16 19 19 18 17 17 17 18 17 14 11 11 12 9 2 2 4 5 2 2 4 17 26 19 24 19 18 21 24 29 28 25
14 17 10 3 11 14 15 16 15 14 9 10 18 23 24 26 25 17 15 16 12 13 8 9 10 9 6 5 2 1 2 2 5 9 11 16 18 22 25 27 30 33 27 28
11 12 3 10 13 12 15 12 12 10 10 12 2 12 9 7 9 10 9 7 10 10 12 9 10 11 7 5 2 3 3 3 6 2 10 11 17 18 27 34 29 23 32 32
15 11 10 14 13 7 12 2 9 13 14 16 20 12 15 18 16 12 9 8 8 7 6 5 5 3 3 3 2 3 4 6 5 5 8 10 17 20 25 26 24 21 25 31
17 12 11 12 14 13 10 10 15 17 15 16 20 18 14 13 15 16 9 8 5 6 6 4 1 4 4 4 5 3 4 5 7 7 7 10 15 15 19 20 18 25 27 25
21 21 21 17 15 15 13 13 12 15 14 14 5 6 12 8 6 5 3 5 5 8 8 6 5 5 6 8 9 8 8 7 7 9 11 11 16 13 18 20 20 22 20 24
17 18 18 18 17 16 12 14 11 8 11 5 11 7 11 9 10 2 5 6 6 8 6 5 6 6 10 11 12 10 11 13 12 11 12 13 16 16 19 20 19 19 23 24
12 12 7 12 13 15 12 10 10 13 19 14 16 16 12 11 8 7 8 6 5 8 7 7 10 10 10 10 11 15 15 14 14 15 13 15 16 19 20 22 21 19 20 23
16 12 9 7 10 13 12 9 6 8 13 18 16 17 13 21 17 9 6 5 4 5 8 11 13 15 16 14 15 15 16 17 18 17 18 18 17 18 20 21 22 22 24 21
13 12 15 8 11 18 11 16 16 16 10 6 11 6 11 1 5 2 4 5 8 11 13 14 14 14 17 19 19 20 20 19 20 20 18 20 20 20 21 21 22 23 25 25
9 7 12 19 14 16 15 16 15 6 14 12 14 17 12 9 5 4 7 14 12 9 11 14 14 16 18 19 22 24 23 25 23 22 23 21 21 22 22 22 23 25 25 24
5 4 7 12 13 13 13 16 17 16 14 21 14 13 2 9 9 11 14 13 12 13 13 11 15 15 17 21 23 24 26 27 27 23 25 23 22 22 23 24 24 24 25 26
7 11 15 14 14 3 7 11 12 11 10 16 19 23 21 16 15 16 17 16 17 17 14 14 16 16 20 24 27 28 30 29 28 26 27 25 22 23 24 25 24 26 25 27
9 16 18 21 21 18 17 19 19 20 19 19 22 24 22 21 20 19 15 16 17 16 20 21 18 19 21 28 29 35 37 33 30 27 28 26 25 26 26 26 27 26 26 28
5 9 14 16 17 17 18 18 19 21 23 24 25 26 25 28 17 16 16 17 15 19 22 21 23 23 21 28 29 33 35 31 30 25 30 29 28 26 27 26 27 26 27 27
6 5 6 13 10 12 12 19 14 21 16 16 21 21 17 20 18 18 18 18 20 23 27 25 24 19 17 27 28 26 31 32 26 28 31 30 29 28 30 29 29 28 27 26
13 12 7 9 13 13 3 14 19 11 13 16 19 20 20 20 20 21 22 22 26 26 21 21 21 19 27 25 32 32 34 31 34 31 32 31 30 29 31 27 30 25 26 25
10 8 5 4 8 16 15 9 11 14 18 20 22 16 18 21 25 26 20 21 22 25 23 18 26 29 33 30 33 32 36 32 31 35 33 30 27 28 30 28 31 25 26 25
6 9 7 7 5 5 10 7 8 13 17 14 18 20 24 22 17 20 19 25 27 27 22 21 31 34 33 30 31 29 30 32 28 32 36 30 27 28 28 30 30 26 27 26
4 4 11 11 7 10 8 11 16 12 13 24 22 23 24 24 21 30 29 29 27 28 27 33 32 27 28 30 29 28 30 28 32 30 31 27 26 28 30 31 29 28 26 24
4 3 5 7 6 7 12 18 10 16 22 22 25 25 28 28 29 28 30 30 26 28 27 33 27 26 30 28 27 25 26 32 30 31 29 28 28 29 28 30 27 29 25 25
2 2 3 4 5 17 15 17 19 19 21 24 26 24 25 30 31 29 26 30 25 23 20 29 26 27 29 29 28 23 28 29 30 31 26 26 29 31 31 26 28 24 27 26
7 9 3 10 6 20 19 19 16 21 24 24 24 28 30 28 28 27 23 21 20 19 19 27 25 21 20 30 29 30 29 28 31 27 27 28 27 30 27 29 27 30 29 28
4 8 8 14 15 17 12 18 21 22 24 27 28 26 23 22 23 22 22 22 20 20 21 27 20 19 22 31 29 28 28 29 30 28 30 28 24 29 26 26 31 32 32 30
2 2 3 5 17 15 18 24 29 23 26 24 25 26 23 21 22 22 20 20 21 22 24 22 22 24 29 29 30 28 28 27 28 26 23 21 21 23 24 23 23 25 25 29

GFSCGP_925_spd_069.txt.gz
Wind_Speed
8 4 7 13 15 17 17 17 18 15 11 12 15 7 8 6 6 6 8 7 7 7 6 5 23 23 17 10 7 2 3 12 17 24 19 19 22 23 22 23 24 20 17 25
6 11 14 17 19 14 14 16 9 11 11 15 13 10 5 5 5 5 7 8 10 8 8 10 18 20 18 15 8 5 4 7 12 18 25 24 20 18 25 29 27 25 19 19
10 11 16 18 13 11 8 7 6 10 15 17 12 11 5 3 5 10 12 8 10 12 12 11 16 23 22 19 13 9 8 7 9 14 16 17 17 15 17 23 22 15 31 27
10 11 16 15 11 4 8 8 12 14 10 6 5 6 5 4 8 13 20 17 9 10 11 11 8 16 26 21 16 12 8 10 9 10 12 22 24 21 24 20 20 25 27 24
16 12 12 15 13 7 10 6 4 8 14 6 12 3 5 5 15 18 16 21 8 8 10 10 10 17 17 16 17 14 8 7 9 10 10 11 13 18 20 21 20 25 30 29
15 13 10 10 16 12 10 3 5 5 3 4 11 5 16 11 15 19 6 10 11 11 10 10 15 20 14 9 13 12 12 11 11 10 11 11 11 11 9 4 11 16 18 24
6 9 11 12 6 12 16 4 2 3 1 9 2 5 14 16 18 25 16 11 11 11 14 13 11 10 15 11 14 17 18 16 13 10 10 11 10 12 13 7 15 15 13 16
3 11 4 1 2 7 10 4 5 6 4 7 4 6 8 12 19 10 12 11 10 12 11 11 11 11 16 19 15 16 9 5 13 16 12 11 14 13 13 14 16 16 13 10
1 5 2 5 5 7 2 6 19 4 5 4 5 7 9 8 18 7 8 10 9 9 9 10 9 17 21 21 22 17 14 11 8 8 11 14 16 17 17 18 19 20 19 19
3 6 9 5 7 9 9 2 1 1 3 4 5 6 4 2 7 6 9 6 7 6 8 7 8 12 17 18 25 26 23 22 19 18 20 19 15 16 18 20 21 22 21 22
3 2 6 7 2 3 3 2 3 4 4 4 2 4 3 4 3 6 10 10 3 8 5 6 7 11 9 3 17 23 25 24 22 24 24 22 22 21 21 20 21 22 23 24
0 3 2 11 15 6 3 5 3 3 7 2 4 7 7 2 4 6 6 14 9 12 11 9 9 13 13 11 12 13 12 10 7 7 13 22 25 25 24 23 25 22 21 25
6 1 3 6 0 2 3 5 7 6 2 3 1 4 2 12 2 2 1 6 16 11 14 15 17 11 12 18 19 19 18 16 13 12 11 10 14 19 24 28 26 25 26 26
3 3 5 5 8 4 3 9 9 5 4 5 10 13 10 9 9 5 9 12 8 4 7 10 6 16 4 1 4 6 7 4 3 3 4 10 14 18 23 27 28 27 26 26
1 3 5 9 13 14 15 17 11 12 14 7 13 11 4 8 2 7 2 6 11 12 11 8 11 5 12 4 2 2 1 2 2 5 7 12 19 23 30 30 32 36 31 29
1 2 6 7 12 12 15 18 14 16 18 11 14 11 14 6 8 6 3 7 6 9 11 15 15 9 6 6 7 9 11 13 13 14 14 16 21 26 31 33 38 39 30 29
3 2 5 4 10 14 7 10 7 9 6 5 2 10 13 11 9 8 6 7 9 13 14 14 8 7 10 16 18 17 16 12 14 17 21 22 23 25 27 29 29 33 29 28
3 3 2 5 7 3 6 11 9 6 6 1 9 10 12 12 13 11 13 15 8 14 15 15 13 13 21 19 12 17 18 16 15 21 24 24 25 25 25 27 29 28 29 29
2 0 2 1 2 10 4 9 9 7 5 10 13 14 15 16 17 12 8 8 14 16 16 16 23 24 22 21 24 25 20 17 19 22 26 29 30 28 27 26 26 28 23 32
3 2 4 3 4 3 5 14 14 13 5 13 19 14 15 17 14 11 13 17 17 17 23 26 35 36 33 30 28 25 22 21 22 24 29 31 30 30 28 29 30 28 24 25
0 2 4 4 4 5 12 13 11 6 6 17 16 15 17 14 12 25 20 22 18 23 30 33 31 30 31 29 26 25 19 18 24 29 28 29 29 31 29 27 25 25 29 26
4 1 3 1 2 4 12 5 3 5 10 13 15 18 20 21 23 21 28 25 28 29 29 33 27 27 31 29 26 23 20 25 27 26 25 26 29 33 28 26 27 29 29 19
2 2 2 1 4 2 5 4 5 8 13 15 18 20 21 24 22 27 29 31 26 25 21 29 25 29 32 30 28 26 31 26 26 25 27 27 29 24 24 24 23 23 19 19
3 0 2 5 4 10 13 6 12 15 17 20 22 22 18 22 28 29 29 26 24 23 22 29 26 21 24 29 29 32 29 28 26 26 26 25 25 24 24 22 23 23 19 19
2 4 5 5 4 15 5 13 17 21 21 22 21 15 20 25 27 26 26 26 24 23 23 29 20 19 23 29 29 29 29 26 26 25 24 23 21 21 21 23 23 22 24 23
2 1 1 4 8 8 16 17 22 20 21 23 17 18 25 25 28 26 25 24 22 23 25 23 23 24 29 30 32 29 28 27 25 21 22 21 20 21 22 21 21 25 29 32

GFSCGP_925_spd_072.txt.gz
Wind_Speed
5 2 6 13 10 13 8 12 15 16 15 4 6 10 10 16 10 9 6 8 9 10 9 12 20 24 23 19 18 17 17 17 22 18 20 23 26 26 27 32 35 34 35 34
4 7 14 12 12 12 14 15 17 10 7 5 7 11 8 9 7 8 8 8 8 4 6 7 21 23 21 20 17 16 16 13 13 15 17 14 16 24 27 24 21 21 28 24
9 13 10 11 13 13 15 14 6 7 3 5 4 7 7 5 5 5 7 6 6 10 9 8 12 24 24 22 18 16 14 11 8 7 13 15 10 15 18 25 32 29 23 19
8 9 9 12 11 8 6 8 7 4 3 4 3 6 6 5 8 7 9 5 9 9 8 11 14 12 28 27 21 17 13 10 8 6 7 11 15 9 13 14 24 31 32 30
12 6 7 11 5 7 4 10 6 4 2 1 4 1 9 4 10 9 11 9 10 11 15 14 11 18 23 21 20 16 12 8 5 6 5 9 9 10 16 23 19 19 22 24
9 2 1 2 10 2 5 4 6 5 2 2 7 5 9 7 5 5 8 16 17 11 10 12 16 24 22 22 22 18 12 6 4 7 8 9 10 10 10 9 11 21 24 28
8 7 7 4 6 2 6 3 3 4 4 11 5 4 17 2 7 4 18 22 11 9 11 17 18 14 22 26 26 23 19 13 10 10 10 9 10 10 12 12 12 12 14 18
3 5 6 4 3 3 4 6 5 7 3 12 5 6 6 5 6 6 15 21 10 11 13 17 17 15 23 28 27 21 19 17 14 15 14 12 11 12 13 13 13 12 12 13
4 6 3 7 3 2 1 4 2 3 4 4 5 7 8 6 2 11 13 19 6 8 9 12 9 13 20 22 21 22 22 20 22 19 21 20 15 15 16 14 13 12 11 13
3 4 6 1 2 4 6 6 4 1 4 5 4 6 5 3 4 11 13 13 14 17 11 4 5 11 24 28 30 30 32 29 25 20 17 18 18 17 16 16 15 13 14 15
3 2 5 3 4 3 1 4 2 2 2 2 3 5 3 5 4 3 9 13 6 8 8 9 9 16 14 29 33 36 34 30 26 23 21 20 20 18 19 18 18 17 17 18
1 4 3 8 12 5 3 4 3 3 3 4 2 5 6 4 6 7 7 7 5 4 4 4 6 8 11 11 26 33 31 31 31 29 26 24 23 21 19 19 21 24 22 22
5 0 3 9 4 3 1 4 4 3 2 5 2 4 2 7 9 4 6 9 10 12 10 5 4 2 5 10 12 13 34 33 33 28 22 19 16 14 13 12 13 12 17 25
7 3 6 5 7 4 5 4 7 7 3 4 5 8 10 6 8 9 8 2 7 14 15 3 6 7 4 3 5 9 9 15 21 21 19 18 15 13 12 13 15 16 19 22
5 4 4 6 10 12 13 13 12 10 10 4 3 3 2 3 6 7 7 6 3 5 5 5 6 7 7 8 12 12 10 12 11 12 12 13 12 13 15 16 19 21 25 27
3 4 2 4 13 8 13 8 8 1 2 3 5 4 2 5 6 6 7 7 8 7 9 8 8 6 7 13 16 21 25 24 23 25 25 24 22 22 23 23 26 29 32 35
2 2 3 5 7 12 3 9 5 5 2 3 2 1 5 7 8 7 7 8 11 10 6 7 6 8 10 15 21 22 27 32 33 33 30 27 24 24 24 26 27 28 29 28
3 2 2 4 6 1 5 0 4 11 5 6 6 8 8 8 9 13 10 12 8 7 8 8 7 11 18 20 23 28 28 24 29 31 30 28 27 26 26 27 30 32 33 31
7 4 1 1 1 6 9 3 6 6 4 5 7 11 13 13 16 16 8 5 11 17 17 17 24 24 27 30 32 28 27 27 28 30 31 32 28 28 29 29 29 31 33 33
2 3 4 1 2 4 2 8 9 7 5 8 10 13 13 15 16 15 11 16 20 19 18 24 35 34 33 35 35 38 39 35 29 28 27 28 29 29 27 30 31 30 30 34
3 1 4 2 3 6 5 9 7 5 6 14 12 13 16 16 14 25 22 21 17 23 30 37 38 36 40 37 33 33 31 28 32 33 33 33 31 29 31 32 32 30 30 30
3 0 2 2 3 6 5 4 1 3 6 11 14 18 19 20 24 22 21 24 29 28 29 34 29 33 38 35 31 30 30 33 31 30 28 26 26 29 30 29 28 29 28 27
1 4 3 5 5 3 2 6 1 3 10 13 17 19 20 24 25 20 25 31 29 29 24 33 28 31 35 34 32 28 33 32 29 27 25 25 27 29 28 26 23 23 27 24
4 3 2 4 1 6 11 3 7 12 14 17 19 22 24 22 18 28 30 28 24 25 24 30 27 23 23 32 34 35 34 29 26 26 26 26 25 24 24 22 21 20 20 20
3 3 1 5 4 12 1 9 13 19 20 20 21 21 18 20 24 30 27 27 25 24 23 28 20 21 23 31 31 34 32 29 26 24 24 23 22 20 20 23 22 22 25 28
1 2 2 4 1 4 13 15 18 19 22 22 22 20 19 23 28 29 25 24 23 23 25 22 22 21 29 30 29 28 28 29 26 22 19 17 17 19 21 21 19 27 28 26

GFSCGP_925_spd_075.txt.gz
Wind_Speed
2 2 6 10 8 8 5 5 12 13 15 4 13 17 11 9 8 11 11 9 11 11 11 13 23 23 25 23 26 28 31 28 34 29 27 24 29 34 38 34 24 32 36 35
4 7 10 5 6 7 8 12 14 12 14 6 9 11 14 6 7 8 10 9 11 5 3 3 17 25 28 27 22 22 24 27 32 32 28 23 22 28 38 35 31 38 44 29
7 9 1 4 7 8 7 6 9 12 7 5 2 7 8 5 5 6 6 4 5 9 8 5 7 21 28 27 27 26 24 22 22 23 22 19 16 9 17 23 31 32 32 31
6 10 10 11 6 3 3 4 7 7 3 7 3 11 10 7 7 5 8 7 8 7 6 5 9 10 23 29 25 23 21 19 16 15 14 14 14 10 8 12 17 24 21 21
11 5 6 6 8 3 7 4 5 4 4 2 3 1 9 4 7 9 9 9 6 10 9 11 11 21 28 29 30 27 24 20 16 11 10 10 9 11 12 13 13 11 14 22
6 1 2 3 2 4 3 3 2 1 3 2 6 7 10 12 8 5 4 8 9 12 10 12 18 22 21 26 26 25 22 19 16 14 13 12 12 12 11 9 8 10 15 15
0 2 2 2 2 2 8 6 4 4 2 11 5 4 17 6 8 6 5 10 11 12 15 9 12 15 21 28 30 25 21 18 15 13 11 10 11 11 10 9 8 8 7 7
2 5 2 2 3 5 1 5 4 6 4 7 5 7 6 5 2 3 1 6 8 10 7 11 15 17 22 25 28 25 21 17 15 11 10 8 6 8 8 8 7 6 5 6
2 4 3 1 3 7 3 5 4 3 1 2 4 7 10 6 1 3 7 9 11 9 9 8 8 6 17 24 29 28 23 20 19 17 14 12 12 12 10 8 6 4 3 3
3 3 4 3 1 5 4 3 2 2 4 4 4 4 8 10 6 4 5 4 6 8 11 10 8 9 9 9 24 29 29 27 25 23 22 20 19 16 13 11 9 7 5 6
3 3 4 3 2 3 3 2 2 1 3 3 1 4 4 4 9 8 7 4 5 6 7 7 6 10 10 6 12 18 29 30 29 26 24 22 20 20 15 12 12 10 10 10
2 4 3 8 7 8 4 3 5 2 3 3 2 5 6 10 16 11 11 11 5 6 4 5 6 8 11 10 7 17 21 18 27 28 27 24 20 20 18 15 15 12 13 13
6 1 2 8 5 5 2 2 2 2 1 4 1 5 1 3 5 7 9 11 8 6 10 8 3 0 1 7 6 5 12 26 27 24 27 26 24 22 21 20 17 13 10 8
8 4 6 6 6 4 6 6 6 5 3 3 8 12 9 5 6 11 10 10 10 8 7 9 5 6 6 6 11 7 7 9 22 27 24 26 26 25 22 19 17 14 10 10
3 5 5 7 9 8 9 12 10 8 14 8 9 10 4 6 5 7 8 8 8 9 12 10 7 5 6 10 13 12 11 9 9 14 17 19 20 20 20 19 16 14 12 13
1 3 1 4 10 7 9 5 9 7 5 9 13 12 4 5 5 6 8 11 13 13 13 13 9 7 6 10 13 14 14 14 16 17 18 20 23 23 22 21 19 17 16 17
3 4 2 4 4 8 3 1 2 4 5 5 5 4 6 9 8 7 8 14 16 17 17 8 8 8 10 15 22 22 25 25 22 19 26 30 31 33 33 29 25 21 21 22
5 4 2 3 5 2 2 4 6 10 12 4 5 6 10 13 14 13 13 17 17 15 11 12 12 17 23 23 24 26 28 26 26 26 25 29 31 34 36 32 28 26 25 25
6 4 1 2 1 6 4 4 4 7 13 4 5 11 13 13 14 16 9 9 10 10 13 18 25 29 33 31 29 28 30 29 28 31 29 26 26 28 31 32 32 30 29 28
5 1 4 2 1 4 4 3 6 5 7 3 6 9 15 15 14 16 8 16 21 21 26 24 29 26 31 37 38 38 36 33 32 32 32 32 31 34 32 35 33 35 33 31
2 2 4 3 3 7 2 5 5 1 4 10 9 13 16 16 15 24 24 23 19 23 23 29 40 41 40 41 42 36 35 36 39 35 33 37 37 37 37 34 37 33 31 28
4 2 2 2 2 6 1 2 1 3 6 11 13 16 20 21 23 24 25 24 27 27 29 38 31 34 41 40 37 34 32 40 39 34 33 29 29 32 30 29 28 27 24 25
2 4 3 6 5 2 2 5 6 3 9 12 15 19 21 23 26 23 23 28 28 29 26 35 30 32 38 37 39 32 35 38 37 34 32 32 33 29 30 28 24 21 23 24
0 2 1 4 2 4 8 2 2 8 12 16 17 20 22 25 20 29 25 25 24 25 24 31 25 23 24 36 36 37 37 36 33 30 29 27 27 25 24 21 21 21 21 21
3 2 1 5 5 9 2 10 14 17 17 19 21 22 22 25 23 26 26 26 24 23 23 29 21 21 24 38 34 34 34 33 26 25 25 26 25 25 22 23 25 24 27 27
2 3 2 4 1 4 12 13 18 17 19 20 21 22 23 17 25 29 26 23 22 22 24 22 22 23 27 32 31 27 28 24 27 23 23 21 20 20 21 20 20 28 27 28